Regional Weather Roundup
Issued by NWS Cleveland, OH

Home | Current Version | Previous Version | Text Only | Print | Product List | Glossary Off
Versions: 1 2 3 4 5 6 7 8 9 10 11 12 13 14 15 16 17 18 19 20 21 22 23 24 25 26 27 28 29 30 31 32 33 34 35 36 37 38 39 40 41 42 43 44 45 46 47 48 49 50

000
ASUS41 KCLE 250702
RWRCLE
OHIO REGIONAL WEATHER ROUNDUP
NATIONAL WEATHER SERVICE CLEVELAND, OH
200 AM EST THU DEC 25 2014

NOTE: "FAIR" INDICATES FEW OR NO CLOUDS BELOW 12,000 FEET WITH NO
SIGNIFICANT WEATHER AND/OR OBSTRUCTIONS TO VISIBILITY.

OHZ001>008-015>018-024>027-034-035-043-044-250800-
   NORTHWEST OHIO

CITY           SKY/WX    TMP DP  RH WIND       PRES   REMARKS
DEFIANCE       LGT RAIN  37  33  85 SW13G22   29.64R
FINDLAY        CLOUDY    38  34  85 SW18G25   29.63R
TOLEDO EXPRESS CLOUDY    37  34  89 W20G29    29.61R
TOLEDO EXEC    CLOUDY    38  33  82 W20G25    29.62R
LIMA           LGT RAIN  38  34  85 SW20G28   29.66R
$$

OHZ009>014-019>023-028>033-038-089-250800-
   NORTHEAST OHIO

CITY           SKY/WX    TMP DP  RH WIND       PRES   REMARKS
CLE-HOPKINS    CLOUDY    39  33  79 SW16      29.63R
CLE-LAKEFRONT  CLOUDY    40  33  76 SW16      29.60R
CUY CO. ARPT   NOT AVBL
LORAIN-ELYRIA  CLOUDY    38  34  85 W23G32    29.62R
ASHTABULA      LGT RAIN  39  34  82 SW18G26   29.58R
AKRON-CANTON   CLOUDY    39  31  72 SW13      29.63R
WOOSTER        LGT RAIN  37  33  85 SW20G28   29.63R
MANSFIELD      LGT RAIN  37  34  89 SW15G22   29.63R
YOUNGSTOWN     LGT RAIN  40  34  79 SW23G37   29.60R
$$

OHZ042-051>053-060>062-070>072-077>081-250800-
  SOUTHWEST OHIO

CITY           SKY/WX    TMP DP  RH WIND       PRES   REMARKS
CINC-COVINGTON CLOUDY    38  32  79 W9G18     29.77R
CINC-LUNKEN    CLOUDY    39  36  89 W13       29.79R
HAMILTON       CLOUDY    40  34  79 W9        29.77R
DAYTON         CLOUDY    39  34  82 W20       29.72R
WRIGHT-PAT AFB CLOUDY    38  34  83 SW14G22   29.72R
DAYTON GENERAL CLOUDY    38  34  85 W13G20    29.73R
WILMINGTON     CLOUDY    38  33  82 SW20G25   29.72R
$$

OHZ036-037-039>041-045>050-054>059-063>069-073>076-082>088-250800-
  CENTRAL AND SOUTHEAST OHIO

CITY           SKY/WX    TMP DP  RH WIND       PRES   REMARKS
COLUMBUS       MOCLDY    38  32  79 SW12      29.70R
OSU AIRPORT    CLOUDY    39  33  79 SW15G21   29.69S
BOLTON FIELD   NOT AVBL
RICKENBACK AFB NOT AVBL
NEWARK         CLOUDY    39  33  79 SW13      29.70R
MARION         CLOUDY    38  33  82 W17G28    29.66R
LANCASTER      CLOUDY    40  34  79 SW16      29.72R
ZANESVILLE     CLOUDY    38  31  76 SW7       29.71R
NEW PHILLY     CLOUDY    41  33  73 SW9G21    29.69R
$$


USA.gov is the U.S. government's official web portal to all federal, state and local government web resources and services.